Time,TemperatureF,DewpointF,PressureIn,WindDirection,WindDirectionDegrees,WindSpeedMPH,WindSpeedGustMPH,Humidity,HourlyPrecipIn,Conditions,Clouds,dailyrainin,SolarRadiationWatts/m^2,SoftwareType,DateUTC
2013-01-22 00:00:00,14.1,3.8,29.92,WSW,250,4.0,15.0,63,0.00,,,0.00,0,WxPro DR1,2013-01-22 05:00:00,
2013-01-22 00:02:00,14.0,3.7,29.92,South,180,3.0,15.0,63,0.00,,,0.00,0,WxPro DR1,2013-01-22 05:02:00,
2013-01-22 00:07:00,13.9,3.3,29.91,WNW,282,1.0,11.0,62,0.00,,,0.00,0,WxPro DR1,2013-01-22 05:07:00,
2013-01-22 00:12:00,13.8,3.6,29.91,WSW,255,0.0,11.0,63,0.00,,,0.00,0,WxPro DR1,2013-01-22 05:12:00,
2013-01-22 00:17:00,13.7,3.5,29.91,SSW,200,7.0,8.0,63,0.00,,,0.00,0,WxPro DR1,2013-01-22 05:17:00,
2013-01-22 00:22:00,13.7,3.1,29.91,WSW,255,3.0,16.0,62,0.00,,,0.00,0,WxPro DR1,2013-01-22 05:22:00,
2013-01-22 00:27:00,13.6,3.1,29.91,WSW,252,1.0,16.0,62,0.00,,,0.00,0,WxPro DR1,2013-01-22 05:27:00,
2013-01-22 00:32:00,13.5,3.3,29.91,West,261,11.0,13.0,63,0.00,,,0.00,0,WxPro DR1,2013-01-22 05:32:00,
2013-01-22 00:37:00,13.4,2.9,29.91,SW,227,1.0,13.0,62,0.00,,,0.00,0,WxPro DR1,2013-01-22 05:37:00,
2013-01-22 00:42:00,13.3,2.8,29.91,WNW,288,3.0,15.0,62,0.00,,,0.00,0,WxPro DR1,2013-01-22 05:42:00,
2013-01-22 00:47:00,13.3,2.8,29.91,SW,217,3.0,15.0,62,0.00,,,0.00,0,WxPro DR1,2013-01-22 05:47:00,
2013-01-22 00:52:00,13.2,2.7,29.91,WSW,255,15.0,15.0,62,0.00,,,0.00,0,WxPro DR1,2013-01-22 05:52:00,
2013-01-22 00:57:00,13.2,3.0,29.91,West,275,3.0,17.0,63,0.00,,,0.00,0,WxPro DR1,2013-01-22 05:57:00,
2013-01-22 01:02:00,13.1,3.4,29.91,WSW,254,1.0,17.0,64,0.00,,,0.00,0,WxPro DR1,2013-01-22 06:02:00,
2013-01-22 01:07:00,13.0,3.5,29.91,West,277,10.0,11.0,65,0.00,,,0.00,0,WxPro DR1,2013-01-22 06:07:00,
2013-01-22 01:12:00,12.9,3.4,29.91,West,265,5.0,12.0,65,0.00,,,0.00,0,WxPro DR1,2013-01-22 06:12:00,
2013-01-22 01:17:00,12.8,3.3,29.90,West,263,1.0,12.0,65,0.00,,,0.00,0,WxPro DR1,2013-01-22 06:17:00,
2013-01-22 01:22:00,12.7,3.5,29.91,SW,227,0.0,10.0,66,0.00,,,0.00,0,WxPro DR1,2013-01-22 06:22:00,
2013-01-22 01:27:00,12.6,3.5,29.91,SW,233,5.0,15.0,66,0.00,,,0.00,0,WxPro DR1,2013-01-22 06:27:00,
2013-01-22 01:32:00,12.6,3.4,29.91,West,260,1.0,15.0,66,0.00,,,0.00,0,WxPro DR1,2013-01-22 06:32:00,
2013-01-22 01:37:00,12.5,3.0,29.91,WSW,243,5.0,13.0,65,0.00,,,0.00,0,WxPro DR1,2013-01-22 06:37:00,
2013-01-22 01:42:00,12.3,2.5,29.91,SSW,209,3.0,14.0,64,0.00,,,0.00,0,WxPro DR1,2013-01-22 06:42:00,
2013-01-22 01:47:00,12.2,2.0,29.91,WSW,256,5.0,16.0,63,0.00,,,0.00,0,WxPro DR1,2013-01-22 06:47:00,
2013-01-22 01:52:00,12.1,2.0,29.91,West,273,6.0,16.0,63,0.00,,,0.00,0,WxPro DR1,2013-01-22 06:52:00,
2013-01-22 01:57:00,12.0,1.5,29.91,WSW,245,1.0,10.0,62,0.00,,,0.00,0,WxPro DR1,2013-01-22 06:57:00,
2013-01-22 02:02:00,11.9,1.1,29.92,WSW,240,4.0,12.0,61,0.00,,,0.00,0,WxPro DR1,2013-01-22 07:02:00,
2013-01-22 02:07:00,11.9,0.7,29.92,WSW,249,5.0,18.0,60,0.00,,,0.00,0,WxPro DR1,2013-01-22 07:07:00,
2013-01-22 02:12:00,11.9,0.7,29.92,WNW,282,4.0,18.0,60,0.00,,,0.00,0,WxPro DR1,2013-01-22 07:12:00,
2013-01-22 02:17:00,11.9,0.7,29.93,SW,231,2.0,17.0,60,0.00,,,0.00,0,WxPro DR1,2013-01-22 07:17:00,
2013-01-22 02:22:00,11.8,0.6,29.93,WSW,255,7.0,17.0,60,0.00,,,0.00,0,WxPro DR1,2013-01-22 07:22:00,
2013-01-22 02:27:00,11.8,0.2,29.93,SW,231,3.0,12.0,59,0.00,,,0.00,0,WxPro DR1,2013-01-22 07:27:00,
2013-01-22 02:32:00,11.7,0.2,29.93,West,281,3.0,13.0,59,0.00,,,0.00,0,WxPro DR1,2013-01-22 07:32:00,
2013-01-22 02:37:00,11.6,0.5,29.93,SW,221,9.0,15.0,60,0.00,,,0.00,0,WxPro DR1,2013-01-22 07:37:00,
2013-01-22 02:42:00,11.6,0.4,29.93,West,259,5.0,17.0,60,0.00,,,0.00,0,WxPro DR1,2013-01-22 07:42:00,
2013-01-22 02:47:00,11.5,0.6,29.93,WSW,248,4.0,17.0,61,0.00,,,0.00,0,WxPro DR1,2013-01-22 07:47:00,
2013-01-22 02:52:00,11.4,0.6,29.93,SSW,203,6.0,13.0,61,0.00,,,0.00,0,WxPro DR1,2013-01-22 07:52:00,
2013-01-22 02:57:00,11.3,0.8,29.94,SW,228,3.0,18.0,62,0.00,,,0.00,0,WxPro DR1,2013-01-22 07:57:00,
2013-01-22 03:02:00,11.3,0.8,29.93,West,271,7.0,18.0,62,0.00,,,0.00,0,WxPro DR1,2013-01-22 08:02:00,
2013-01-22 03:07:00,11.1,1.0,29.93,WSW,244,0.0,16.0,63,0.00,,,0.00,0,WxPro DR1,2013-01-22 08:07:00,
2013-01-22 03:12:00,11.0,0.9,29.93,SW,215,4.0,16.0,63,0.00,,,0.00,0,WxPro DR1,2013-01-22 08:12:00,
2013-01-22 03:17:00,11.0,1.2,29.93,West,269,3.0,14.0,64,0.00,,,0.00,0,WxPro DR1,2013-01-22 08:17:00,
2013-01-22 03:22:00,10.9,1.2,29.93,WNW,286,6.0,20.0,64,0.00,,,0.00,0,WxPro DR1,2013-01-22 08:22:00,
2013-01-22 03:27:00,10.9,1.5,29.94,SW,226,10.0,20.0,65,0.00,,,0.00,0,WxPro DR1,2013-01-22 08:27:00,
2013-01-22 03:32:00,10.8,1.1,29.94,West,269,1.0,14.0,64,0.00,,,0.00,0,WxPro DR1,2013-01-22 08:32:00,
2013-01-22 03:37:00,10.8,1.4,29.94,West,261,4.0,12.0,65,0.00,,,0.00,0,WxPro DR1,2013-01-22 08:37:00,
2013-01-22 03:42:00,10.7,1.3,29.94,SW,217,0.0,12.0,65,0.00,,,0.00,0,WxPro DR1,2013-01-22 08:42:00,
2013-01-22 03:47:00,10.7,1.3,29.94,WSW,253,2.0,14.0,65,0.00,,,0.00,0,WxPro DR1,2013-01-22 08:47:00,
2013-01-22 03:52:00,10.6,0.8,29.94,West,275,7.0,17.0,64,0.00,,,0.00,0,WxPro DR1,2013-01-22 08:52:00,
2013-01-22 03:57:00,10.5,0.8,29.94,WNW,287,4.0,17.0,64,0.00,,,0.00,0,WxPro DR1,2013-01-22 08:57:00,
2013-01-22 04:02:00,10.5,0.8,29.95,West,267,0.0,14.0,64,0.00,,,0.00,0,WxPro DR1,2013-01-22 09:02:00,
2013-01-22 04:07:00,10.4,1.0,29.94,WSW,258,6.0,14.0,65,0.00,,,0.00,0,WxPro DR1,2013-01-22 09:07:00,
2013-01-22 04:12:00,10.4,0.9,29.95,West,268,7.0,15.0,65,0.00,,,0.00,0,WxPro DR1,2013-01-22 09:12:00,
2013-01-22 04:17:00,10.4,0.7,29.95,SSW,210,0.0,16.0,64,0.00,,,0.00,0,WxPro DR1,2013-01-22 09:17:00,
2013-01-22 04:22:00,10.4,0.7,29.94,WSW,258,3.0,16.0,64,0.00,,,0.00,0,WxPro DR1,2013-01-22 09:22:00,
2013-01-22 04:27:00,10.4,0.7,29.94,WSW,242,1.0,16.0,64,0.00,,,0.00,0,WxPro DR1,2013-01-22 09:27:00,
2013-01-22 04:32:00,10.4,0.7,29.95,SW,215,12.0,13.0,64,0.00,,,0.00,0,WxPro DR1,2013-01-22 09:32:00,
2013-01-22 04:37:00,10.3,0.6,29.95,South,191,3.0,13.0,64,0.00,,,0.00,0,WxPro DR1,2013-01-22 09:37:00,
2013-01-22 04:42:00,10.3,0.5,29.95,WSW,250,6.0,13.0,64,0.00,,,0.00,0,WxPro DR1,2013-01-22 09:42:00,
2013-01-22 04:47:00,10.1,0.4,29.96,WSW,246,4.0,13.0,64,0.00,,,0.00,0,WxPro DR1,2013-01-22 09:47:00,
2013-01-22 04:52:00,10.1,0.3,29.96,WNW,290,5.0,14.0,64,0.00,,,0.00,0,WxPro DR1,2013-01-22 09:52:00,
2013-01-22 04:57:00,10.0,0.3,29.96,SW,222,4.0,14.0,64,0.00,,,0.00,0,WxPro DR1,2013-01-22 09:57:00,
2013-01-22 05:02:00,9.9,0.2,29.96,West,279,16.0,16.0,64,0.00,,,0.00,0,WxPro DR1,2013-01-22 10:02:00,
2013-01-22 05:07:00,9.9,-0.1,29.96,SW,217,3.0,20.0,63,0.00,,,0.00,0,WxPro DR1,2013-01-22 10:07:00,
2013-01-22 05:12:00,9.9,-0.2,29.96,SW,228,1.0,20.0,63,0.00,,,0.00,0,WxPro DR1,2013-01-22 10:12:00,
2013-01-22 05:17:00,9.7,0.0,29.96,WSW,245,0.0,16.0,64,0.00,,,0.00,0,WxPro DR1,2013-01-22 10:17:00,
2013-01-22 05:22:00,9.6,-0.1,29.97,SSW,213,2.0,12.0,64,0.00,,,0.00,0,WxPro DR1,2013-01-22 10:22:00,
2013-01-22 05:27:00,9.5,-0.2,29.97,WSW,244,1.0,12.0,64,0.00,,,0.00,0,WxPro DR1,2013-01-22 10:27:00,
2013-01-22 05:32:00,9.4,-0.2,29.97,WSW,253,1.0,13.0,64,0.00,,,0.00,0,WxPro DR1,2013-01-22 10:32:00,
2013-01-22 05:37:00,9.4,-0.6,29.97,SSE,167,2.0,13.0,63,0.00,,,0.00,0,WxPro DR1,2013-01-22 10:37:00,
2013-01-22 05:42:00,9.3,-0.4,29.97,WSW,248,1.0,13.0,64,0.00,,,0.00,0,WxPro DR1,2013-01-22 10:42:00,
2013-01-22 05:47:00,9.2,-0.5,29.98,West,264,1.0,11.0,64,0.00,,,0.00,0,WxPro DR1,2013-01-22 10:47:00,
2013-01-22 05:52:00,9.1,-0.6,29.98,SW,222,1.0,11.0,64,0.00,,,0.00,0,WxPro DR1,2013-01-22 10:52:00,
2013-01-22 05:57:00,9.0,-1.0,29.98,West,279,2.0,13.0,63,0.00,,,0.00,0,WxPro DR1,2013-01-22 10:57:00,
2013-01-22 06:02:00,8.9,-1.4,29.98,SSW,209,4.0,23.0,62,0.00,,,0.00,0,WxPro DR1,2013-01-22 11:02:00,
2013-01-22 06:07:00,8.9,-1.4,29.98,WSW,258,1.0,23.0,62,0.00,,,0.00,0,WxPro DR1,2013-01-22 11:07:00,
2013-01-22 06:12:00,8.9,-1.4,29.98,SW,219,3.0,12.0,62,0.00,,,0.00,0,WxPro DR1,2013-01-22 11:12:00,
2013-01-22 06:17:00,8.9,-1.4,29.99,West,264,5.0,12.0,62,0.00,,,0.00,0,WxPro DR1,2013-01-22 11:17:00,
2013-01-22 06:22:00,8.9,-1.4,29.99,WSW,253,8.0,13.0,62,0.00,,,0.00,0,WxPro DR1,2013-01-22 11:22:00,
2013-01-22 06:27:00,8.8,-1.5,29.99,West,279,4.0,14.0,62,0.00,,,0.00,0,WxPro DR1,2013-01-22 11:27:00,
2013-01-22 06:32:00,8.8,-1.5,29.99,SW,236,1.0,14.0,62,0.00,,,0.00,0,WxPro DR1,2013-01-22 11:32:00,
2013-01-22 06:37:00,8.8,-1.3,30.00,SW,229,6.0,13.0,63,0.00,,,0.00,0,WxPro DR1,2013-01-22 11:37:00,
2013-01-22 06:42:00,8.7,-1.6,29.99,West,261,1.0,10.0,62,0.00,,,0.00,0,WxPro DR1,2013-01-22 11:42:00,
2013-01-22 06:47:00,8.7,-1.8,29.99,SW,217,6.0,17.0,62,0.00,,,0.00,0,WxPro DR1,2013-01-22 11:47:00,
2013-01-22 06:52:00,8.7,-1.6,30.00,SSW,203,0.0,17.0,62,0.00,,,0.00,0,WxPro DR1,2013-01-22 11:52:00,
2013-01-22 06:57:00,8.7,-1.7,30.00,WSW,257,12.0,12.0,62,0.00,,,0.00,0,WxPro DR1,2013-01-22 11:57:00,
2013-01-22 07:02:00,8.7,-1.9,30.00,WSW,255,3.0,12.0,61,0.00,,,0.00,0,WxPro DR1,2013-01-22 12:02:00,
2013-01-22 07:07:00,8.6,-1.9,30.00,SW,226,0.0,12.0,61,0.00,,,0.00,0,WxPro DR1,2013-01-22 12:07:00,
2013-01-22 07:12:00,8.6,-2.0,30.00,SW,225,1.0,14.0,61,0.00,,,0.00,0,WxPro DR1,2013-01-22 12:12:00,
2013-01-22 07:17:00,8.6,-2.0,30.00,SW,214,2.0,14.0,61,0.00,,,0.00,0,WxPro DR1,2013-01-22 12:17:00,
2013-01-22 07:22:00,8.6,-2.1,30.01,SSW,206,1.0,12.0,61,0.00,,,0.00,0,WxPro DR1,2013-01-22 12:22:00,
2013-01-22 07:27:00,8.5,-2.1,30.01,South,188,1.0,12.0,61,0.00,,,0.00,0,WxPro DR1,2013-01-22 12:27:00,
2013-01-22 07:32:00,8.5,-2.2,30.01,WSW,252,11.0,15.0,61,0.00,,,0.00,0,WxPro DR1,2013-01-22 12:32:00,
2013-01-22 07:37:00,8.5,-2.2,30.01,SSW,201,1.0,15.0,61,0.00,,,0.00,5,WxPro DR1,2013-01-22 12:37:00,
2013-01-22 07:42:00,8.5,-2.2,30.01,WSW,256,2.0,15.0,61,0.00,,,0.00,9,WxPro DR1,2013-01-22 12:42:00,
2013-01-22 07:47:00,8.5,-2.2,30.01,WNW,302,2.0,11.0,61,0.00,,,0.00,12,WxPro DR1,2013-01-22 12:47:00,
2013-01-22 07:52:00,8.5,-2.0,30.02,WSW,255,0.0,16.0,61,0.00,,,0.00,14,WxPro DR1,2013-01-22 12:52:00,
2013-01-22 07:57:00,8.5,-2.2,30.02,SW,226,4.0,16.0,61,0.00,,,0.00,18,WxPro DR1,2013-01-22 12:57:00,
2013-01-22 08:02:00,8.6,-1.7,30.02,West,272,4.0,13.0,62,0.00,,,0.00,25,WxPro DR1,2013-01-22 13:02:00,
2013-01-22 08:07:00,8.6,-1.7,30.02,SSW,211,3.0,13.0,62,0.00,,,0.00,26,WxPro DR1,2013-01-22 13:07:00,
2013-01-22 08:12:00,8.7,-1.6,30.02,WSW,245,3.0,13.0,62,0.00,,,0.00,30,WxPro DR1,2013-01-22 13:12:00,
2013-01-22 08:17:00,8.8,-1.5,30.03,SSW,210,0.0,14.0,62,0.00,,,0.00,40,WxPro DR1,2013-01-22 13:17:00,
2013-01-22 08:22:00,8.9,-1.8,30.02,WSW,240,4.0,14.0,61,0.00,,,0.00,39,WxPro DR1,2013-01-22 13:22:00,
2013-01-22 08:27:00,8.9,-1.4,30.02,WSW,257,5.0,14.0,62,0.00,,,0.00,39,WxPro DR1,2013-01-22 13:27:00,
2013-01-22 08:32:00,9.0,-1.3,30.02,WSW,241,3.0,15.0,62,0.00,,,0.00,49,WxPro DR1,2013-01-22 13:32:00,
2013-01-22 08:37:00,9.1,-0.9,30.03,SSW,213,1.0,15.0,63,0.00,,,0.00,62,WxPro DR1,2013-01-22 13:37:00,
2013-01-22 08:42:00,9.3,-0.8,30.03,SSW,209,7.0,14.0,63,0.00,,,0.00,70,WxPro DR1,2013-01-22 13:42:00,
2013-01-22 08:47:00,9.5,-0.9,30.03,SSW,207,3.0,14.0,62,0.00,,,0.00,81,WxPro DR1,2013-01-22 13:47:00,
2013-01-22 08:52:00,9.6,-1.1,30.03,SW,223,2.0,15.0,61,0.00,,,0.00,83,WxPro DR1,2013-01-22 13:52:00,
2013-01-22 08:57:00,9.8,-0.9,30.03,SSW,213,5.0,15.0,61,0.00,,,0.00,83,WxPro DR1,2013-01-22 13:57:00,
2013-01-22 09:02:00,9.9,-1.2,30.04,SW,221,2.0,14.0,60,0.00,,,0.00,69,WxPro DR1,2013-01-22 14:02:00,
2013-01-22 09:07:00,9.9,-1.1,30.04,WSW,255,4.0,14.0,60,0.00,,,0.00,93,WxPro DR1,2013-01-22 14:07:00,
2013-01-22 09:12:00,10.1,-1.0,30.04,South,188,5.0,14.0,60,0.00,,,0.00,116,WxPro DR1,2013-01-22 14:12:00,
2013-01-22 09:17:00,10.4,-1.0,30.04,SW,217,8.0,16.0,59,0.00,,,0.00,114,WxPro DR1,2013-01-22 14:17:00,
2013-01-22 09:22:00,10.6,-1.1,30.04,NW,305,5.0,16.0,58,0.00,,,0.00,130,WxPro DR1,2013-01-22 14:22:00,
2013-01-22 09:27:00,10.8,-1.1,30.04,SSW,203,3.0,16.0,58,0.00,,,0.00,100,WxPro DR1,2013-01-22 14:27:00,
2013-01-22 09:32:00,10.9,-0.9,30.04,SW,217,2.0,16.0,58,0.00,,,0.00,90,WxPro DR1,2013-01-22 14:32:00,
2013-01-22 09:37:00,11.2,-0.6,30.05,WSW,253,10.0,17.0,58,0.00,,,0.00,102,WxPro DR1,2013-01-22 14:37:00,
2013-01-22 09:42:00,11.7,-0.2,30.05,SW,217,2.0,17.0,58,0.00,,,0.00,230,WxPro DR1,2013-01-22 14:42:00,
2013-01-22 09:47:00,12.1,-0.2,30.05,SW,233,8.0,18.0,57,0.00,,,0.00,200,WxPro DR1,2013-01-22 14:47:00,
2013-01-22 09:52:00,12.2,-0.1,30.05,WSW,245,3.0,18.0,57,0.00,,,0.00,174,WxPro DR1,2013-01-22 14:52:00,
2013-01-22 09:57:00,12.4,-0.2,30.05,SW,216,2.0,19.0,56,0.00,,,0.00,141,WxPro DR1,2013-01-22 14:57:00,
2013-01-22 10:02:00,12.4,0.1,30.05,West,259,12.0,19.0,57,0.00,,,0.00,172,WxPro DR1,2013-01-22 15:02:00,
2013-01-22 10:07:00,12.4,-0.2,30.06,SW,229,14.0,23.0,56,0.00,,,0.00,186,WxPro DR1,2013-01-22 15:07:00,
2013-01-22 10:12:00,12.3,0.0,30.06,WSW,254,10.0,25.0,57,0.00,,,0.00,178,WxPro DR1,2013-01-22 15:12:00,
2013-01-22 10:17:00,12.4,-0.1,30.06,West,271,14.0,25.0,56,0.00,,,0.00,141,WxPro DR1,2013-01-22 15:17:00,
2013-01-22 10:22:00,12.2,-0.1,30.06,SW,215,3.0,21.0,57,0.00,,,0.00,130,WxPro DR1,2013-01-22 15:22:00,
2013-01-22 10:27:00,12.4,0.1,30.06,West,276,11.0,23.0,57,0.00,,,0.00,169,WxPro DR1,2013-01-22 15:27:00,
2013-01-22 10:32:00,12.3,0.1,30.07,WSW,249,3.0,23.0,57,0.00,,,0.00,190,WxPro DR1,2013-01-22 15:32:00,
2013-01-22 10:37:00,12.6,0.3,30.07,WSW,248,3.0,20.0,57,0.00,,,0.00,127,WxPro DR1,2013-01-22 15:37:00,
2013-01-22 10:42:00,12.9,0.2,30.07,WNW,282,6.0,18.0,56,0.00,,,0.00,179,WxPro DR1,2013-01-22 15:42:00,
2013-01-22 10:47:00,12.8,0.1,30.07,West,273,15.0,19.0,56,0.00,,,0.00,213,WxPro DR1,2013-01-22 15:47:00,
2013-01-22 10:52:00,12.7,0.4,30.07,West,265,7.0,20.0,57,0.00,,,0.00,172,WxPro DR1,2013-01-22 15:52:00,
2013-01-22 10:57:00,12.8,0.1,30.08,West,261,7.0,20.0,56,0.00,,,0.00,192,WxPro DR1,2013-01-22 15:57:00,
2013-01-22 11:02:00,12.7,0.4,30.08,WNW,292,15.0,22.0,57,0.00,,,0.00,186,WxPro DR1,2013-01-22 16:02:00,
2013-01-22 11:07:00,12.8,0.5,30.08,West,271,3.0,22.0,57,0.00,,,0.00,209,WxPro DR1,2013-01-22 16:07:00,
2013-01-22 11:12:00,13.0,0.4,30.08,West,271,4.0,19.0,56,0.00,,,0.00,269,WxPro DR1,2013-01-22 16:12:00,
2013-01-22 11:17:00,13.4,0.7,30.08,West,263,8.0,19.0,56,0.00,,,0.00,272,WxPro DR1,2013-01-22 16:17:00,
2013-01-22 11:22:00,13.6,0.8,30.08,SW,217,7.0,20.0,56,0.00,,,0.00,214,WxPro DR1,2013-01-22 16:22:00,
2013-01-22 11:27:00,13.2,0.5,30.08,SW,217,7.0,20.0,56,0.00,,,0.00,209,WxPro DR1,2013-01-22 16:27:00,
2013-01-22 11:32:00,13.0,0.7,30.08,SW,233,5.0,17.0,57,0.00,,,0.00,234,WxPro DR1,2013-01-22 16:32:00,
2013-01-22 11:37:00,13.0,0.3,30.08,West,276,17.0,24.0,56,0.00,,,0.00,234,WxPro DR1,2013-01-22 16:37:00,
2013-01-22 11:42:00,12.6,-0.1,30.07,WSW,253,17.0,27.0,56,0.00,,,0.00,221,WxPro DR1,2013-01-22 16:42:00,
2013-01-22 11:47:00,12.6,-0.1,30.07,West,261,4.0,27.0,56,0.00,,,0.00,207,WxPro DR1,2013-01-22 16:47:00,
2013-01-22 11:52:00,12.8,0.1,30.07,WNW,284,5.0,19.0,56,0.00,,,0.00,218,WxPro DR1,2013-01-22 16:52:00,
2013-01-22 11:57:00,13.1,0.8,30.07,SSW,212,13.0,19.0,57,0.00,,,0.00,251,WxPro DR1,2013-01-22 16:57:00,
2013-01-22 12:02:00,13.6,0.5,30.07,West,275,10.0,16.0,55,0.00,,,0.00,248,WxPro DR1,2013-01-22 17:02:00,
2013-01-22 12:07:00,13.5,0.4,30.07,West,278,5.0,21.0,55,0.00,,,0.00,285,WxPro DR1,2013-01-22 17:07:00,
2013-01-22 12:12:00,13.8,0.6,30.07,WNW,288,7.0,21.0,55,0.00,,,0.00,255,WxPro DR1,2013-01-22 17:12:00,
2013-01-22 12:17:00,13.6,0.6,30.07,WSW,257,8.0,16.0,55,0.00,,,0.00,276,WxPro DR1,2013-01-22 17:17:00,
2013-01-22 12:22:00,13.7,0.6,30.07,WSW,246,2.0,20.0,55,0.00,,,0.00,327,WxPro DR1,2013-01-22 17:22:00,
2013-01-22 12:27:00,13.6,0.9,30.07,West,260,13.0,20.0,56,0.00,,,0.00,327,WxPro DR1,2013-01-22 17:27:00,
2013-01-22 12:32:00,13.8,0.6,30.07,South,182,4.0,20.0,55,0.00,,,0.00,288,WxPro DR1,2013-01-22 17:32:00,
2013-01-22 12:37:00,13.5,0.4,30.07,West,268,4.0,20.0,55,0.00,,,0.00,343,WxPro DR1,2013-01-22 17:37:00,
2013-01-22 12:42:00,13.4,0.3,30.07,West,267,11.0,19.0,55,0.00,,,0.00,345,WxPro DR1,2013-01-22 17:42:00,
2013-01-22 12:47:00,13.6,2.4,30.07,West,268,3.0,17.0,60,0.00,,,0.00,341,WxPro DR1,2013-01-22 17:47:00,
2013-01-22 12:52:00,14.1,0.9,30.07,SW,219,6.0,17.0,55,0.00,,,0.00,348,WxPro DR1,2013-01-22 17:52:00,
2013-01-22 12:57:00,14.1,0.9,30.07,WSW,237,6.0,22.0,55,0.00,,,0.00,149,WxPro DR1,2013-01-22 17:57:00,
2013-01-22 13:02:00,13.9,0.8,30.07,West,259,4.0,22.0,55,0.00,,,0.00,381,WxPro DR1,2013-01-22 18:02:00,
2013-01-22 13:07:00,13.6,0.6,30.07,WSW,243,4.0,22.0,55,0.00,,,0.00,320,WxPro DR1,2013-01-22 18:07:00,
2013-01-22 13:12:00,13.7,0.9,30.07,SSE,162,5.0,22.0,56,0.00,,,0.00,288,WxPro DR1,2013-01-22 18:12:00,
2013-01-22 13:17:00,13.7,0.6,30.07,South,182,0.0,23.0,55,0.00,,,0.00,316,WxPro DR1,2013-01-22 18:17:00,
2013-01-22 13:22:00,13.6,0.7,30.07,WSW,237,5.0,23.0,55,0.00,,,0.00,357,WxPro DR1,2013-01-22 18:22:00,
2013-01-22 13:27:00,13.7,1.3,30.07,West,280,3.0,17.0,57,0.00,,,0.00,385,WxPro DR1,2013-01-22 18:27:00,
2013-01-22 13:32:00,13.5,0.4,30.07,NW,317,1.0,18.0,55,0.00,,,0.00,345,WxPro DR1,2013-01-22 18:32:00,
2013-01-22 13:37:00,13.6,0.4,30.07,West,272,8.0,18.0,55,0.00,,,0.00,411,WxPro DR1,2013-01-22 18:37:00,
2013-01-22 13:42:00,14.0,0.1,30.07,West,267,2.0,15.0,53,0.00,,,0.00,374,WxPro DR1,2013-01-22 18:42:00,
2013-01-22 13:47:00,14.4,0.9,30.07,SW,217,7.0,13.0,54,0.00,,,0.00,494,WxPro DR1,2013-01-22 18:47:00,
2013-01-22 13:52:00,15.0,0.6,30.07,NW,306,2.0,20.0,52,0.00,,,0.00,462,WxPro DR1,2013-01-22 18:52:00,
2013-01-22 13:57:00,14.7,0.3,30.07,SSE,156,3.0,20.0,52,0.00,,,0.00,171,WxPro DR1,2013-01-22 18:57:00,
2013-01-22 14:02:00,14.0,-0.3,30.07,SW,236,5.0,22.0,52,0.00,,,0.00,371,WxPro DR1,2013-01-22 19:02:00,
2013-01-22 14:07:00,13.9,0.1,30.07,SW,214,3.0,22.0,53,0.00,,,0.00,290,WxPro DR1,2013-01-22 19:07:00,
2013-01-22 14:12:00,14.3,-0.2,30.07,SW,223,9.0,19.0,52,0.00,,,0.00,420,WxPro DR1,2013-01-22 19:12:00,
2013-01-22 14:17:00,14.4,-0.4,30.08,South,169,12.0,19.0,51,0.00,,,0.00,327,WxPro DR1,2013-01-22 19:17:00,
2013-01-22 14:23:00,14.0,-0.3,30.08,West,265,10.0,19.0,52,0.00,,,0.00,260,WxPro DR1,2013-01-22 19:23:00,
2013-01-22 14:28:00,13.8,-0.5,30.08,WNW,290,3.0,16.0,52,0.00,,,0.00,234,WxPro DR1,2013-01-22 19:28:00,
2013-01-22 14:33:00,13.6,-0.7,30.08,SW,219,6.0,16.0,52,0.00,,,0.00,236,WxPro DR1,2013-01-22 19:33:00,
2013-01-22 14:38:00,13.8,-0.8,30.08,SW,216,1.0,13.0,51,0.00,,,0.00,362,WxPro DR1,2013-01-22 19:38:00,
2013-01-22 14:43:00,14.1,-0.7,30.09,West,269,7.0,14.0,51,0.00,,,0.00,172,WxPro DR1,2013-01-22 19:43:00,
2013-01-22 14:48:00,13.9,-1.3,30.09,West,265,10.0,16.0,50,0.00,,,0.00,98,WxPro DR1,2013-01-22 19:48:00,
2013-01-22 14:53:00,13.2,-1.5,30.09,SW,234,20.0,20.0,51,0.00,,,0.00,79,WxPro DR1,2013-01-22 19:53:00,
2013-01-22 14:58:00,12.8,-1.8,30.09,West,259,13.0,20.0,51,0.00,,,0.00,144,WxPro DR1,2013-01-22 19:58:00,
2013-01-22 15:03:00,13.0,-1.3,30.09,WSW,237,1.0,16.0,52,0.00,,,0.00,276,WxPro DR1,2013-01-22 20:03:00,
2013-01-22 15:08:00,13.6,-1.2,30.09,WNW,292,4.0,12.0,51,0.00,,,0.00,186,WxPro DR1,2013-01-22 20:08:00,
2013-01-22 15:13:00,13.9,-1.5,30.09,West,263,5.0,14.0,49,0.00,,,0.00,244,WxPro DR1,2013-01-22 20:13:00,
2013-01-22 15:18:00,13.9,-1.1,30.09,WSW,242,11.0,14.0,50,0.00,,,0.00,155,WxPro DR1,2013-01-22 20:18:00,
2013-01-22 15:23:00,13.8,-1.5,30.10,WNW,293,5.0,18.0,50,0.00,,,0.00,178,WxPro DR1,2013-01-22 20:23:00,
2013-01-22 15:28:00,13.6,-1.5,30.10,SW,219,3.0,18.0,50,0.00,,,0.00,142,WxPro DR1,2013-01-22 20:28:00,
2013-01-22 15:33:00,13.6,-1.9,30.10,SSW,213,0.0,19.0,49,0.00,,,0.00,135,WxPro DR1,2013-01-22 20:33:00,
2013-01-22 15:38:00,13.5,-2.0,30.10,West,267,2.0,19.0,49,0.00,,,0.00,320,WxPro DR1,2013-01-22 20:38:00,
2013-01-22 15:43:00,13.8,-1.8,30.10,WNW,283,9.0,14.0,49,0.00,,,0.00,258,WxPro DR1,2013-01-22 20:43:00,
2013-01-22 15:48:00,14.0,-0.6,30.11,South,186,6.0,15.0,52,0.00,,,0.00,234,WxPro DR1,2013-01-22 20:48:00,
2013-01-22 15:53:00,14.0,-1.4,30.11,West,263,4.0,15.0,49,0.00,,,0.00,162,WxPro DR1,2013-01-22 20:53:00,
2013-01-22 15:58:00,13.7,-1.4,30.10,SW,214,7.0,14.0,50,0.00,,,0.00,90,WxPro DR1,2013-01-22 20:58:00,
2013-01-22 16:03:00,13.2,-1.9,30.11,SW,228,1.0,18.0,50,0.00,,,0.00,95,WxPro DR1,2013-01-22 21:03:00,
2013-01-22 16:08:00,13.0,-1.7,30.11,SSW,210,0.0,18.0,51,0.00,,,0.00,65,WxPro DR1,2013-01-22 21:08:00,
2013-01-22 16:13:00,13.0,-2.1,30.11,South,183,5.0,15.0,50,0.00,,,0.00,56,WxPro DR1,2013-01-22 21:13:00,
2013-01-22 16:18:00,12.6,-2.4,30.11,WSW,253,5.0,15.0,50,0.00,,,0.00,53,WxPro DR1,2013-01-22 21:18:00,
2013-01-22 16:23:00,12.5,-2.8,30.11,SW,221,0.0,16.0,49,0.00,,,0.00,56,WxPro DR1,2013-01-22 21:23:00,
2013-01-22 16:28:00,12.6,-2.9,30.11,SW,227,15.0,16.0,49,0.00,,,0.00,65,WxPro DR1,2013-01-22 21:28:00,
2013-01-22 16:31:00,12.6,-3.3,30.11,SW,232,1.0,15.0,48,0.00,,,0.00,51,WxPro DR1,2013-01-22 21:31:00,
2013-01-22 16:36:00,12.8,-3.2,30.11,SSW,210,3.0,17.0,48,0.00,,,0.00,35,WxPro DR1,2013-01-22 21:36:00,
2013-01-22 16:41:00,12.7,-3.3,30.11,West,271,7.0,17.0,48,0.00,,,0.00,28,WxPro DR1,2013-01-22 21:41:00,
2013-01-22 16:46:00,12.6,-3.3,30.12,WNW,282,3.0,16.0,48,0.00,,,0.00,23,WxPro DR1,2013-01-22 21:46:00,
2013-01-22 16:51:00,12.5,-3.0,30.12,South,188,2.0,16.0,49,0.00,,,0.00,23,WxPro DR1,2013-01-22 21:51:00,
2013-01-22 16:56:00,12.2,-2.8,30.12,WSW,253,3.0,15.0,50,0.00,,,0.00,18,WxPro DR1,2013-01-22 21:56:00,
2013-01-22 17:01:00,11.9,-2.6,30.13,WNW,282,7.0,16.0,51,0.00,,,0.00,11,WxPro DR1,2013-01-22 22:01:00,
2013-01-22 17:06:00,11.8,-2.4,30.13,NW,326,5.0,18.0,52,0.00,,,0.00,7,WxPro DR1,2013-01-22 22:06:00,
2013-01-22 17:11:00,11.8,-2.0,30.13,West,263,2.0,18.0,53,0.00,,,0.00,0,WxPro DR1,2013-01-22 22:11:00,
2013-01-22 17:16:00,11.8,-2.0,30.13,West,262,4.0,15.0,53,0.00,,,0.00,0,WxPro DR1,2013-01-22 22:16:00,
2013-01-22 17:21:00,11.8,-2.0,30.13,West,270,2.0,14.0,53,0.00,,,0.00,0,WxPro DR1,2013-01-22 22:21:00,
2013-01-22 17:26:00,11.8,-2.0,30.13,SW,219,2.0,13.0,53,0.00,,,0.00,0,WxPro DR1,2013-01-22 22:26:00,
2013-01-22 17:31:00,11.7,-2.5,30.13,SSE,159,0.0,12.0,52,0.00,,,0.00,0,WxPro DR1,2013-01-22 22:31:00,
2013-01-22 17:36:00,11.6,-2.5,30.13,WNW,282,4.0,12.0,52,0.00,,,0.00,0,WxPro DR1,2013-01-22 22:36:00,
2013-01-22 17:41:00,11.6,-2.6,30.14,West,260,6.0,11.0,52,0.00,,,0.00,0,WxPro DR1,2013-01-22 22:41:00,
2013-01-22 17:46:00,11.5,-2.8,30.14,SW,223,4.0,17.0,52,0.00,,,0.00,0,WxPro DR1,2013-01-22 22:46:00,
2013-01-22 17:51:00,11.4,-2.8,30.14,West,265,1.0,17.0,52,0.00,,,0.00,0,WxPro DR1,2013-01-22 22:51:00,
2013-01-22 17:56:00,11.3,-2.4,30.14,West,277,1.0,11.0,53,0.00,,,0.00,0,WxPro DR1,2013-01-22 22:56:00,
2013-01-22 18:01:00,11.3,-2.9,30.14,WNW,287,0.0,18.0,52,0.00,,,0.00,0,WxPro DR1,2013-01-22 23:01:00,
2013-01-22 18:06:00,11.3,-2.5,30.15,WSW,258,5.0,18.0,53,0.00,,,0.00,0,WxPro DR1,2013-01-22 23:06:00,
2013-01-22 18:11:00,11.3,-2.5,30.15,WSW,246,0.0,17.0,53,0.00,,,0.00,0,WxPro DR1,2013-01-22 23:11:00,
2013-01-22 18:16:00,11.3,-2.5,30.15,SW,215,1.0,17.0,53,0.00,,,0.00,0,WxPro DR1,2013-01-22 23:16:00,
2013-01-22 18:21:00,11.2,-2.2,30.15,WSW,257,7.0,14.0,54,0.00,,,0.00,0,WxPro DR1,2013-01-22 23:21:00,
2013-01-22 18:26:00,11.2,-1.8,30.15,WSW,251,2.0,15.0,55,0.00,,,0.00,0,WxPro DR1,2013-01-22 23:26:00,
2013-01-22 18:31:00,11.1,-1.9,30.15,West,274,1.0,15.0,55,0.00,,,0.00,0,WxPro DR1,2013-01-22 23:31:00,
2013-01-22 18:36:00,11.0,-1.6,30.16,WSW,256,1.0,13.0,56,0.00,,,0.00,0,WxPro DR1,2013-01-22 23:36:00,
2013-01-22 18:41:00,11.0,-1.6,30.16,SW,226,4.0,11.0,56,0.00,,,0.00,0,WxPro DR1,2013-01-22 23:41:00,
2013-01-22 18:46:00,11.0,-1.2,30.16,West,261,7.0,14.0,57,0.00,,,0.00,0,WxPro DR1,2013-01-22 23:46:00,
2013-01-22 18:51:00,11.0,-1.2,30.16,WNW,282,4.0,14.0,57,0.00,,,0.00,0,WxPro DR1,2013-01-22 23:51:00,
2013-01-22 18:56:00,11.0,-1.2,30.16,WSW,250,0.0,14.0,57,0.00,,,0.00,0,WxPro DR1,2013-01-22 23:56:00,
2013-01-22 19:01:00,11.0,-1.1,30.16,West,265,3.0,16.0,57,0.00,,,0.00,0,WxPro DR1,2013-01-23 00:01:00,
2013-01-22 19:06:00,11.0,-0.9,30.16,West,270,2.0,16.0,58,0.00,,,0.00,0,WxPro DR1,2013-01-23 00:06:00,
2013-01-22 19:11:00,10.9,-0.9,30.16,West,271,3.0,13.0,58,0.00,,,0.00,0,WxPro DR1,2013-01-23 00:11:00,
2013-01-22 19:16:00,11.0,-0.9,30.17,West,261,4.0,17.0,58,0.00,,,0.00,0,WxPro DR1,2013-01-23 00:16:00,
2013-01-22 19:21:00,11.0,-1.2,30.17,West,281,8.0,17.0,57,0.00,,,0.00,0,WxPro DR1,2013-01-23 00:21:00,
2013-01-22 19:26:00,10.9,-1.3,30.17,West,272,3.0,17.0,57,0.00,,,0.00,0,WxPro DR1,2013-01-23 00:26:00,
2013-01-22 19:31:00,10.9,-1.3,30.17,WNW,303,2.0,16.0,57,0.00,,,0.00,0,WxPro DR1,2013-01-23 00:31:00,
2013-01-22 19:36:00,10.8,-1.4,30.17,SW,236,3.0,21.0,57,0.00,,,0.00,0,WxPro DR1,2013-01-23 00:36:00,
2013-01-22 19:41:00,10.7,-1.1,30.17,West,268,5.0,21.0,58,0.00,,,0.00,0,WxPro DR1,2013-01-23 00:41:00,
2013-01-22 19:46:00,10.7,-1.1,30.17,West,269,3.0,18.0,58,0.00,,,0.00,0,WxPro DR1,2013-01-23 00:46:00,
2013-01-22 19:51:00,10.7,-1.0,30.17,West,275,4.0,23.0,58,0.00,,,0.00,0,WxPro DR1,2013-01-23 00:51:00,
2013-01-22 19:56:00,10.6,-0.5,30.17,West,272,6.0,23.0,60,0.00,,,0.00,0,WxPro DR1,2013-01-23 00:56:00,
2013-01-22 20:01:00,10.5,-0.6,30.17,West,261,4.0,18.0,60,0.00,,,0.00,0,WxPro DR1,2013-01-23 01:01:00,
2013-01-22 20:06:00,10.5,-0.4,30.17,SSW,212,3.0,14.0,61,0.00,,,0.00,0,WxPro DR1,2013-01-23 01:06:00,
2013-01-22 20:11:00,10.5,-0.2,30.17,WSW,250,1.0,14.0,61,0.00,,,0.00,0,WxPro DR1,2013-01-23 01:11:00,
2013-01-22 20:16:00,10.5,0.1,30.17,WNW,295,4.0,14.0,62,0.00,,,0.00,0,WxPro DR1,2013-01-23 01:16:00,
2013-01-22 20:21:00,10.5,0.1,30.17,SW,234,1.0,13.0,62,0.00,,,0.00,0,WxPro DR1,2013-01-23 01:21:00,
2013-01-22 20:26:00,10.2,-0.2,30.17,WNW,288,6.0,14.0,62,0.00,,,0.00,0,WxPro DR1,2013-01-23 01:26:00,
2013-01-22 20:31:00,10.1,-0.3,30.17,West,259,0.0,14.0,62,0.00,,,0.00,0,WxPro DR1,2013-01-23 01:31:00,
2013-01-22 20:36:00,9.9,-0.4,30.17,WNW,287,7.0,15.0,62,0.00,,,0.00,0,WxPro DR1,2013-01-23 01:36:00,
2013-01-22 20:41:00,9.9,-0.5,30.17,WSW,255,4.0,15.0,62,0.00,,,0.00,0,WxPro DR1,2013-01-23 01:41:00,
2013-01-22 20:46:00,9.9,-0.5,30.18,WSW,242,4.0,12.0,62,0.00,,,0.00,0,WxPro DR1,2013-01-23 01:46:00,
2013-01-22 20:51:00,9.8,-0.3,30.18,WNW,288,4.0,12.0,63,0.00,,,0.00,0,WxPro DR1,2013-01-23 01:51:00,
2013-01-22 20:56:00,9.7,-0.4,30.18,WSW,245,2.0,14.0,63,0.00,,,0.00,0,WxPro DR1,2013-01-23 01:56:00,
2013-01-22 21:01:00,9.6,-0.4,30.18,West,277,9.0,14.0,63,0.00,,,0.00,0,WxPro DR1,2013-01-23 02:01:00,
2013-01-22 21:06:00,9.6,-0.4,30.18,West,280,2.0,15.0,63,0.00,,,0.00,0,WxPro DR1,2013-01-23 02:06:00,
2013-01-22 21:11:00,9.5,-0.2,30.18,West,269,6.0,15.0,64,0.00,,,0.00,0,WxPro DR1,2013-01-23 02:11:00,
2013-01-22 21:16:00,9.4,-0.3,30.18,West,272,4.0,14.0,64,0.00,,,0.00,0,WxPro DR1,2013-01-23 02:16:00,
2013-01-22 21:21:00,9.3,-0.1,30.18,West,271,7.0,14.0,65,0.00,,,0.00,0,WxPro DR1,2013-01-23 02:21:00,
2013-01-22 21:26:00,9.2,0.5,30.18,WNW,303,10.0,18.0,67,0.00,,,0.00,0,WxPro DR1,2013-01-23 02:26:00,
2013-01-22 21:31:00,9.1,0.7,30.19,WSW,250,5.0,18.0,68,0.00,,,0.00,0,WxPro DR1,2013-01-23 02:31:00,
2013-01-22 21:36:00,9.0,0.9,30.19,West,259,7.0,16.0,69,0.00,,,0.00,0,WxPro DR1,2013-01-23 02:36:00,
2013-01-22 21:41:00,9.1,1.3,30.19,West,275,1.0,18.0,70,0.00,,,0.00,0,WxPro DR1,2013-01-23 02:41:00,
2013-01-22 21:46:00,9.2,1.6,30.19,WNW,282,4.0,18.0,71,0.00,,,0.00,0,WxPro DR1,2013-01-23 02:46:00,
2013-01-22 21:51:00,9.1,1.7,30.19,WSW,257,0.0,11.0,71,0.00,,,0.00,0,WxPro DR1,2013-01-23 02:51:00,
2013-01-22 21:56:00,9.0,1.6,30.19,West,263,12.0,14.0,71,0.00,,,0.00,0,WxPro DR1,2013-01-23 02:56:00,
2013-01-22 22:01:00,8.9,1.4,30.19,West,271,2.0,14.0,71,0.00,,,0.00,0,WxPro DR1,2013-01-23 03:01:00,
2013-01-22 22:06:00,8.7,1.3,30.19,West,265,10.0,13.0,71,0.00,,,0.00,0,WxPro DR1,2013-01-23 03:06:00,
2013-01-22 22:11:00,8.7,1.0,30.19,WNW,283,1.0,13.0,70,0.00,,,0.00,0,WxPro DR1,2013-01-23 03:11:00,
2013-01-22 22:16:00,8.7,1.0,30.19,West,275,2.0,11.0,70,0.00,,,0.00,0,WxPro DR1,2013-01-23 03:16:00,
2013-01-22 22:21:00,8.7,0.9,30.19,WSW,256,2.0,7.0,70,0.00,,,0.00,0,WxPro DR1,2013-01-23 03:21:00,
2013-01-22 22:26:00,8.8,1.0,30.19,WSW,237,0.0,7.0,70,0.00,,,0.00,0,WxPro DR1,2013-01-23 03:26:00,
2013-01-22 22:31:00,8.8,1.0,30.19,WSW,240,3.0,7.0,70,0.00,,,0.00,0,WxPro DR1,2013-01-23 03:31:00,
2013-01-22 22:36:00,8.7,0.6,30.19,West,273,1.0,10.0,69,0.00,,,0.00,0,WxPro DR1,2013-01-23 03:36:00,
2013-01-22 22:41:00,8.6,0.7,30.20,West,269,1.0,10.0,70,0.00,,,0.00,0,WxPro DR1,2013-01-23 03:41:00,
2013-01-22 22:46:00,8.5,0.2,30.20,West,263,5.0,9.0,68,0.00,,,0.00,0,WxPro DR1,2013-01-23 03:46:00,
2013-01-22 22:51:00,8.5,0.4,30.19,WSW,246,0.0,14.0,69,0.00,,,0.00,0,WxPro DR1,2013-01-23 03:51:00,
2013-01-22 22:56:00,8.4,0.1,30.20,WSW,257,4.0,14.0,68,0.00,,,0.00,0,WxPro DR1,2013-01-23 03:56:00,
2013-01-22 23:01:00,8.4,0.0,30.20,WSW,254,6.0,11.0,68,0.00,,,0.00,0,WxPro DR1,2013-01-23 04:01:00,
2013-01-22 23:06:00,8.4,-0.6,30.20,WNW,287,2.0,11.0,66,0.00,,,0.00,0,WxPro DR1,2013-01-23 04:06:00,
2013-01-22 23:11:00,8.5,-0.5,30.20,SW,215,1.0,13.0,66,0.00,,,0.00,0,WxPro DR1,2013-01-23 04:11:00,
2013-01-22 23:16:00,8.5,-0.5,30.20,WSW,257,5.0,14.0,66,0.00,,,0.00,0,WxPro DR1,2013-01-23 04:16:00,
2013-01-22 23:21:00,8.5,-0.5,30.20,West,259,2.0,14.0,66,0.00,,,0.00,0,WxPro DR1,2013-01-23 04:21:00,
2013-01-22 23:26:00,8.4,-0.9,30.20,NW,306,2.0,10.0,65,0.00,,,0.00,0,WxPro DR1,2013-01-23 04:26:00,
2013-01-22 23:31:00,8.4,-0.9,30.19,NW,310,3.0,11.0,65,0.00,,,0.00,0,WxPro DR1,2013-01-23 04:31:00,
2013-01-22 23:36:00,8.4,-1.3,30.19,SW,229,0.0,11.0,64,0.00,,,0.00,0,WxPro DR1,2013-01-23 04:36:00,
2013-01-22 23:41:00,8.3,-1.3,30.19,WSW,242,9.0,11.0,64,0.00,,,0.00,0,WxPro DR1,2013-01-23 04:41:00,
2013-01-22 23:46:00,8.3,-1.7,30.19,WSW,247,0.0,14.0,63,0.00,,,0.00,0,WxPro DR1,2013-01-23 04:46:00,
2013-01-22 23:51:00,8.1,-1.5,30.19,WSW,253,2.0,14.0,64,0.00,,,0.00,0,WxPro DR1,2013-01-23 04:51:00,
2013-01-22 23:56:00,8.0,-1.9,30.19,WSW,256,3.0,11.0,63,0.00,,,0.00,0,WxPro DR1,2013-01-23 04:56:00,